CZ-3C DEB, 40195

Orbit data source: Space-Track

CZ-3C DEB, 40195 is space debris in HEO originally from a launch on Fri, 24 Feb 2012 UTC launched from the Xichang Space Center, China (XSC). Debris objects in space refer to the collection of defunct objects orbiting the Earth. Examples of debris include non-operational satellites, rocket bodies, and fragments generated from explosions, collisions, or faulty payload assembly.

Loading next visibility...
Identifier
40195, 2012-008E
Orbit
HEO
Last TLE update
3 days ago
Origin
Manufacturer
CALT
Mission
Spacecraft
Bus & Motor
Unknown
Mass
Unknown
Launch date (UTC)
2012-02-24 (13 years ago)
Launch vehicle
Unknown
Launch site
Xichang Space Center, China (XSC)
Object type
Payload
Rocket body
Debris
Shape & HBR
Unknown
Radar Cross Section
Medium (>0.1 m² and <1 m²)

Expand to show TLE details & history

TLE from 3 days ago
0 CZ-3C DEB
1 40195U 12008E   25188.93585422  .00001041  00000-0  36565-2 0  9995
2 40195  20.6971 319.9652 7121879 320.1719   4.9976  2.39067557 98948
Epoch: 2025-07-07T22:27Z
TLE epoch observation values (Epoch: 2025-07-07T22:27:37.804Z)
Latitude
0.00005°
Longitude
56.88211°
Altitude
1,121.244 km
Speed
9.456 km/s
True Right ascension
21h 19m 42s
True Declination
0° 00' 00"
Sunlit
Object was in full shadow at epoch
Visualization orbit readout
Latitude
9.7806°
Longitude
-151.44568°
Altitude
32,932.908 km
Speed
1.846 km/s
Apparent Right ascension
07h 00m 50s
Apparent Declination
3° 38' 38"
Sunlit
Object is in daylight
Visualization observer readout
Local Sidereal Time
14:54:12
Azimuth
291.881° WNW
Elevation
-18.82°
Doppler factor
1
Orbital elements
Apogee altitude
34,081.34 km
Perigee altitude
422.943 km
Semi-major axis
23,630.279 km
Eccentricity
0.71219
Inclination
20.6971°
RAAN
319.9652°
Arg. of periapsis
320.1719°
True anomaly
Unknown
Mean anomaly
4.9976°
Eccentric anomaly
Unknown
Mean motion
0.5975 °/min
Orbital period
602.51 mins
BSTAR
0.0036565
Loading maneuver chart data...
Loading SW <> Apogee altitude chart data...
Loading historical data...
Loading historical data...
Loading historical data...
Loading historical data...
Loading historical data...
Loading historical data...
Loading historical data...

CZ-3C DEB Visibility forecast

Observer location: undefined°, undefined°

Span
Click to sort rows by Start time (UTC) header in descending order
Start Az.
Max El. time (UTC)
Max El. Az.
Max El.
End time (UTC)
End Az.
442 mins2025-07-11 17:18:37.128Z265.278° W2025-07-11 18:57:37.128Z243.845° WSW35.658°2025-07-12 00:40:37.128Z252.722° W
|